Terug naar catalogus

BREEZE-M R/B

LostHEO
NORAD 32709·ROCKET BODY·🇷🇺 Russia

Gelanceerd Mar 14, 2008 vanaf Baikonur Cosmodrome

Loading…

Volgende Passages (komende 24 uur)

TLE

VerouderdSource: Space-Track

Epoch: Apr 1, 2026, 23:01 UTC

1 32709U 08011B   26091.95920100 -.00000925  00000-0 -44403-2 0  9990
2 32709  49.3374 337.6132 6513507 241.9231  38.8530  3.09678068143874

Volg BREEZE-M R/B in realtime met AllMySat

Download on the App Store